Regional Weather Roundup
Issued by NWS

Home | Current Version | Previous Version | Graphics & Text | Print | Product List | Glossary On
Versions: 1 2 3 4 5 6 7 8 9 10 11 12 13 14 15 16 17 18 19 20 21 22 23 24 25 26 27 28 29 30 31 32 33 34 35 36 37 38 39 40 41 42 43 44 45 46 47 48 49 50
000
ASUS43 KLMK 241910
RWRKY
SDFRWRKY ALL
KENTUCKY REGIONAL WEATHER ROUNDUP
NATIONAL WEATHER SERVICE LOUISVILLE KY
200 PM EST FRI NOV 24 2017

NOTE "FAIR" INDICATES FEW OR NO CLOUDS BELOW 12,000 FEET
WITH NO SIGNIFICANT WEATHER AND/OR OBSTRUCTIONS TO VISIBILITY.

KYZ001>023-026-027-061>063-070>075-242000-
WESTERN AND SOUTH CENTRAL KENTUCKY

CITY           SKY/WX    TMP DP  RH WIND       PRES   REMARKS
PADUCAH        SUNNY     61  31  32 S9        29.87F
HENDERSON      MOSUNNY   60  34  37 S14       29.85F
OWENSBORO      PTSUNNY   58  32  37 S14       29.86F
HOPKINSVILLE   SUNNY     60  24  24 S10       29.90F
BOWLING GREEN  SUNNY     60  24  25 SW12      29.92F
GLASGOW        SUNNY     59  23  25 SW8       29.92F
$$

KYZ024-025-028>034-038-045-046-053-242000-
NORTH CENTRAL KENTUCKY

CITY           SKY/WX    TMP DP  RH WIND       PRES   REMARKS
LOUISVILLE/SDF PTSUNNY   59  25  27 SW8       29.87F
LOUISVILLE/LOU MOSUNNY   58  28  32 S10       29.88F
FORT KNOX      SUNNY     58  24  27 S12       29.87F
$$

KYZ035>037-039>044-047>052-055>060-089>105-242000-
NORTHEAST KENTUCKY

CITY           SKY/WX    TMP DP  RH WIND       PRES   REMARKS
LEXINGTON      SUNNY     57  24  28 S10       29.90F
COVINGTON      PTSUNNY   54  28  36 S14       29.85F
FRANKFORT      SUNNY     58  22  24 S13       29.88F
$$

KYZ054-064>069-076>088-106>120-242000-
SOUTHEAST KENTUCKY

CITY           SKY/WX    TMP DP  RH WIND       PRES   REMARKS
JACKSON        SUNNY     61  27  27 SW6       29.91F
LONDON         SUNNY     59  29  31 SW8G18    29.92F
SOMERSET       SUNNY     59  28  31 S3        29.93F
MIDDLESBORO    SUNNY     58  35  41 S7        29.94F
MONTICELLO     CLEAR     61  30  31 W16       29.94F
$$





USA.gov is the U.S. government's official web portal to all federal, state and local government web resources and services.